Fort Belvoir, VA

10:24 PM EST on December 13, 2019 (GMT -0500)
Davison Army Air Field

Weather History for KDAA - May, 2019

Change the Weather History Date:

Monday, May 13, 2019

  Actual Average Record
Temperature  
Mean Temperature 54 °F -  
Max Temperature 61 °F 75 °F 96 °F (2000)
Min Temperature 48 °F 51 °F 37 °F (2013)
Degree Days  
Heating Degree Days 11    
Growing Degree Days 4 (Base 50)    
Moisture  
Dew Point 49 °F    
Average Humidity 88    
Maximum Humidity 94    
Minimum Humidity 72    
Precipitation  
Precipitation 0.58 in - - ()
Sea Level Pressure  
Sea Level Pressure 29.81 in    
Wind  
Wind Speed 1 mph ()    
Max Wind Speed 12 mph    
Max Gust Speed -    
Visibility 9.0 miles    
Events Rain    
Averages and records for this station are not official NWS values.
T = Trace of Precipitation, MM = Missing Value Source: Averaged Metar Reports

Daily Weather History Graph

Daily Weather History Graph

Search for Another Location

Airport or City:

Astronomy

May. 13, 2019 Rise Set
Actual Time 5:58 AM EDT 8:12 PM EDT
Civil Twilight 5:28 AM EDT 8:41 PM EDT
Nautical Twilight 4:52 AM EDT 9:18 PM EDT
Astronomical Twilight 4:12 AM EDT 9:58 PM EDT
Moon 2:26 PM EDT (5/13) 3:10 AM EDT (5/13)
Length of Visible Light 15h 12m
Length of Day
14h 13m
Waxing Gibbous, 68% of the Moon is Illuminated
May 13
Waxing Gibbous
May 18
Full
May 26
Last Quarter
Jun 3
New
Jun 10
First Quarter

Hourly Weather History & Observations

Time (EDT) Temp. Dew Point Humidity Pressure Visibility Wind Dir Wind Speed Gust Speed Precip Events Conditions
12:09 AM 50.0 °F 48.2 °F 94% 29.82 in 10.0 mi NNE 3.5 mph - N/A   Overcast
12:56 AM 50.2 °F 48.0 °F 92% 29.84 in 10.0 mi Calm Calm - N/A   Overcast
1:41 AM 50.0 °F 48.2 °F 94% 29.82 in 8.0 mi Calm Calm - N/A   Overcast
1:48 AM 50.0 °F 48.2 °F 94% 29.82 in 7.0 mi NNE 3.5 mph - N/A Rain Light Rain
1:56 AM 49.6 °F 47.5 °F 92% 29.82 in 7.0 mi Calm Calm - 0.00 in Rain Light Rain
1:57 AM 50.0 °F 48.2 °F 94% 29.82 in 7.0 mi Calm Calm - N/A Rain Light Rain
2:07 AM 50.0 °F 48.2 °F 94% 29.83 in 5.0 mi North 3.5 mph - N/A Rain Light Rain
2:56 AM 48.9 °F 46.9 °F 93% 29.83 in 2.8 mi Calm Calm - 0.20 in Rain Rain
3:01 AM 48.2 °F 46.4 °F 93% 29.82 in 4.0 mi Calm Calm - N/A Rain Light Rain
3:06 AM 48.2 °F 46.4 °F 93% 29.81 in 4.0 mi Calm Calm - N/A Rain Heavy Rain
3:11 AM 48.2 °F 46.4 °F 93% 29.82 in 4.0 mi Calm Calm - N/A Rain Rain
3:36 AM 48.2 °F 46.4 °F 93% 29.82 in 10.0 mi Calm Calm - N/A Rain Light Rain
3:46 AM 48.2 °F 46.4 °F 93% 29.81 in 7.0 mi Calm Calm - N/A Rain Light Rain
3:56 AM 48.6 °F 46.6 °F 93% 29.81 in 4.0 mi Calm Calm - 0.15 in Rain Rain
4:11 AM 48.2 °F 46.4 °F 93% 29.81 in 10.0 mi North 3.5 mph - N/A Rain Light Rain
4:22 AM 48.2 °F 46.4 °F 93% 29.80 in 10.0 mi Calm Calm - N/A   Mostly Cloudy
4:31 AM 48.2 °F 46.4 °F 93% 29.81 in 10.0 mi NNW 3.5 mph - N/A   Mostly Cloudy
4:36 AM 48.2 °F 46.4 °F 93% 29.81 in 10.0 mi Calm Calm - N/A   Mostly Cloudy
4:51 AM 48.2 °F 46.4 °F 93% 29.81 in 10.0 mi Calm Calm - N/A   Overcast
4:56 AM 48.7 °F 46.8 °F 93% 29.81 in 10.0 mi Calm Calm - 0.02 in   Overcast
4:57 AM 48.2 °F 46.4 °F 93% 29.81 in 10.0 mi NNW 3.5 mph - N/A Rain Light Rain
5:12 AM 48.2 °F 46.4 °F 93% 29.82 in 10.0 mi North 3.5 mph - N/A   Mostly Cloudy
5:17 AM 48.2 °F 46.4 °F 93% 29.82 in 10.0 mi Calm Calm - N/A   Mostly Cloudy
5:32 AM 48.2 °F 46.4 °F 93% 29.80 in 10.0 mi Calm Calm - N/A   Mostly Cloudy
5:42 AM 48.2 °F 46.4 °F 93% 29.80 in 10.0 mi Calm Calm - N/A   Overcast
5:47 AM 48.2 °F 46.4 °F 93% 29.80 in 10.0 mi Calm Calm - N/A   Overcast
5:56 AM 48.9 °F 46.9 °F 93% 29.80 in 10.0 mi Calm Calm - 0.00 in   Overcast
6:01 AM 48.2 °F 46.4 °F 93% 29.81 in 10.0 mi Calm Calm - N/A   Overcast
6:10 AM 48.2 °F 46.4 °F 93% 29.81 in 10.0 mi Calm Calm - N/A   Light Drizzle
6:20 AM 50.0 °F 46.4 °F 87% 29.82 in 10.0 mi Calm Calm - N/A   Overcast
6:56 AM 49.3 °F 47.1 °F 92% 29.82 in 10.0 mi Calm Calm - 0.00 in   Overcast
7:11 AM 50.0 °F 46.4 °F 87% 29.82 in 10.0 mi Calm Calm - N/A   Overcast
7:15 AM 50.0 °F 46.4 °F 87% 29.82 in 10.0 mi Calm Calm - N/A Rain Light Rain
7:20 AM 50.0 °F 46.4 °F 87% 29.82 in 10.0 mi NNE 3.5 mph - N/A Rain Light Rain
7:30 AM 50.0 °F 48.2 °F 94% 29.82 in 10.0 mi Calm Calm - N/A   Mostly Cloudy
7:45 AM 50.0 °F 48.2 °F 94% 29.83 in 10.0 mi Calm Calm - N/A   Overcast
7:56 AM 49.8 °F 47.7 °F 92% 29.82 in 10.0 mi Calm Calm - 0.00 in   Overcast
7:58 AM 50.0 °F 48.2 °F 94% 29.82 in 10.0 mi Calm Calm - N/A Rain Light Rain
8:13 AM 50.0 °F 48.2 °F 94% 29.82 in 10.0 mi Calm Calm - N/A Rain Light Rain
8:18 AM 50.0 °F 48.2 °F 94% 29.82 in 10.0 mi Calm Calm - N/A Rain Light Rain
8:26 AM 50.0 °F 48.2 °F 94% 29.82 in 10.0 mi ENE 3.5 mph - N/A   Mostly Cloudy
8:51 AM 50.0 °F 48.2 °F 94% 29.83 in 10.0 mi Calm Calm - N/A Rain Light Rain
8:55 AM 50.0 °F 48.2 °F 94% 29.82 in 9.0 mi Calm Calm - N/A Rain Light Rain
8:56 AM 50.2 °F 47.7 °F 91% 29.82 in 8.0 mi Calm Calm - 0.02 in Rain Light Rain
9:01 AM 50.0 °F 48.2 °F 94% 29.82 in 4.0 mi NE 3.5 mph - N/A Rain Rain
9:26 AM 51.8 °F 48.2 °F 88% 29.80 in 10.0 mi Calm Calm - N/A Rain Light Rain
9:36 AM 51.8 °F 48.2 °F 88% 29.80 in 10.0 mi Calm Calm - N/A Rain Light Rain
9:41 AM 51.8 °F 48.2 °F 88% 29.81 in 10.0 mi Calm Calm - N/A   Mostly Cloudy
9:46 AM 51.8 °F 48.2 °F 88% 29.82 in 10.0 mi Calm Calm - N/A   Mostly Cloudy
9:53 AM 50.0 °F 48.2 °F 94% 29.82 in 10.0 mi Calm Calm - N/A Rain Light Rain
9:56 AM 50.7 °F 48.2 °F 91% 29.81 in 9.0 mi Calm Calm - 0.09 in Rain Light Rain
10:01 AM 50.0 °F 48.2 °F 94% 29.80 in 5.0 mi ENE 3.5 mph - N/A Rain Rain
10:17 AM 51.8 °F 50.0 °F 94% 29.80 in 10.0 mi North 3.5 mph - N/A   Mostly Cloudy
10:37 AM 51.8 °F 50.0 °F 94% 29.80 in 10.0 mi North 3.5 mph - N/A   Overcast
10:56 AM 52.9 °F 49.5 °F 88% 29.79 in 10.0 mi NE 3.5 mph - 0.03 in   Overcast
11:06 AM 53.6 °F 50.0 °F 88% 29.80 in 10.0 mi ENE 3.5 mph - N/A   Overcast
11:49 AM 53.6 °F 48.2 °F 82% 29.80 in 9.0 mi Calm Calm - N/A Rain Light Rain
11:56 AM 52.2 °F 48.7 °F 88% 29.81 in 6.0 mi NW 6.9 mph - 0.02 in Rain Light Rain
12:11 PM 51.8 °F 50.0 °F 94% 29.83 in 8.0 mi NW 10.4 mph - N/A Rain Light Rain
12:12 PM 51.8 °F 50.0 °F 94% 29.83 in 8.0 mi NW 11.5 mph - N/A Rain Heavy Rain
12:22 PM 51.8 °F 50.0 °F 94% 29.83 in 2.5 mi NW 6.9 mph - N/A Rain Light Rain
12:26 PM 51.8 °F 50.0 °F 94% 29.82 in 3.0 mi NNW 6.9 mph - N/A Rain Light Rain
12:46 PM 53.6 °F 50.0 °F 88% 29.80 in 10.0 mi NE 4.6 mph - N/A   Light Drizzle
12:47 PM 53.6 °F 50.0 °F 88% 29.80 in 10.0 mi ENE 4.6 mph - N/A   Overcast
12:48 PM 53.6 °F 50.0 °F 88% 29.79 in 10.0 mi NE 4.6 mph - N/A Rain Light Rain
12:56 PM 52.9 °F 50.4 °F 91% 29.78 in 10.0 mi ESE 6.9 mph - 0.04 in Rain Light Rain
1:01 PM 53.6 °F 50.0 °F 88% 29.78 in 10.0 mi Calm Calm - N/A Rain Light Rain
1:21 PM 53.6 °F 51.8 °F 94% 29.79 in 10.0 mi Calm Calm - N/A   Mostly Cloudy
1:26 PM 55.4 °F 51.8 °F 88% 29.78 in 10.0 mi Calm Calm - N/A   Mostly Cloudy
1:56 PM 56.7 °F 50.5 °F 80% 29.79 in 10.0 mi Calm Calm - 0.01 in   Mostly Cloudy
2:16 PM 57.2 °F 50.0 °F 77% 29.79 in 10.0 mi NNW 4.6 mph - N/A   Mostly Cloudy
2:31 PM 57.2 °F 50.0 °F 77% 29.78 in 10.0 mi NW 4.6 mph - N/A   Overcast
2:51 PM 57.2 °F 50.0 °F 77% 29.79 in 10.0 mi Calm Calm - N/A   Mostly Cloudy
2:56 PM 57.4 °F 50.2 °F 77% 29.79 in 10.0 mi Calm Calm - N/A   Mostly Cloudy
3:11 PM 59.0 °F 50.0 °F 72% 29.78 in 10.0 mi NW 5.8 mph - N/A   Overcast
3:56 PM 57.6 °F 51.4 °F 80% 29.78 in 10.0 mi NNW 4.6 mph - 0.00 in Rain Light Rain
4:31 PM 59.0 °F 51.8 °F 77% 29.77 in 10.0 mi Calm Calm - N/A   Clear
4:32 PM 59.0 °F 51.8 °F 77% 29.77 in 10.0 mi Calm Calm - N/A   Light Drizzle
4:33 PM 59.0 °F 51.8 °F 77% 29.77 in 10.0 mi Calm Calm - N/A   Partly Cloudy
4:36 PM 59.0 °F 51.8 °F 77% 29.77 in 10.0 mi Calm Calm - N/A Rain Light Rain
4:45 PM 59.0 °F 51.8 °F 77% 29.77 in 10.0 mi Calm Calm - N/A   Scattered Clouds
4:56 PM 59.9 °F 52.3 °F 76% 29.77 in 10.0 mi Calm Calm - 0.00 in   Scattered Clouds
5:01 PM 59.0 °F 51.8 °F 77% 29.76 in 10.0 mi Calm Calm - N/A   Mostly Cloudy
5:36 PM 60.8 °F 51.8 °F 72% 29.78 in 10.0 mi NNW 3.5 mph - N/A   Overcast
5:41 PM 60.8 °F 51.8 °F 72% 29.78 in 10.0 mi NNE 3.5 mph - N/A   Overcast
5:56 PM 59.9 °F 52.0 °F 75% 29.78 in 10.0 mi NW 5.8 mph - N/A   Mostly Cloudy
6:06 PM 60.8 °F 51.8 °F 72% 29.78 in 10.0 mi NNW 4.6 mph - N/A   Mostly Cloudy
6:11 PM 60.8 °F 51.8 °F 72% 29.78 in 10.0 mi NW 5.8 mph - N/A   Mostly Cloudy
6:16 PM 60.8 °F 51.8 °F 72% 29.78 in 10.0 mi NNW 5.8 mph - N/A   Scattered Clouds
6:56 PM 59.7 °F 50.7 °F 72% 29.80 in 10.0 mi NNW 4.6 mph - N/A   Partly Cloudy
7:56 PM 56.7 °F 51.8 °F 84% 29.81 in 10.0 mi Calm Calm - N/A   Partly Cloudy
8:56 PM 53.4 °F 51.4 °F 93% 29.84 in 10.0 mi Calm Calm - N/A   Mostly Cloudy
9:56 PM 53.2 °F 50.9 °F 92% 29.85 in 10.0 mi Calm Calm - N/A   Scattered Clouds
10:56 PM 50.9 °F 49.3 °F 94% 29.86 in 10.0 mi Calm Calm - N/A   Clear
11:56 PM 49.3 °F 47.7 °F 94% 29.86 in 6.0 mi Calm Calm - N/A   Clear